CW8164 Weather Reports


Display with metric or nautical units.
time (UTC)temp
F
wind
direction
speed
MPH
gust
MPH
rain 1hr
in
rain 24hr
in
rain mn
in
humidity
%
barometer
mb
20260510032904 66 265 0.0 0.0 0.00 0.00 0.00 67 1014.1
20260510032404 67 265 0.0 0.0 0.00 0.00 0.00 66 1014.1
20260510031904 67 265 0.0 0.0 0.00 0.00 0.00 65 1014.2
20260510031404 68 265 0.0 0.0 0.00 0.00 0.00 64 1014.1
20260510030404 69 265 0.0 0.0 0.00 0.00 0.00 60 1014.0
20260510025904 70 267 0.0 0.0 0.00 0.00 0.00 57 1014.0
20260510025404 70 267 0.0 0.0 0.00 0.00 0.00 58 1014.0
20260510024904 71 338 0.0 0.0 0.00 0.00 0.00 57 1014.0
20260510024404 71 272 0.0 0.0 0.00 0.00 0.00 56 1014.0
20260510023404 72 278 0.0 0.0 0.00 0.00 0.00 56 1014.0
20260510022905 72 273 0.0 0.0 0.00 0.00 0.00 57 1014.0
20260510022404 72 273 0.0 0.0 0.00 0.00 0.00 56 1014.1
20260510021904 73 273 0.0 0.0 0.00 0.00 0.00 56 1014.1
20260510021404 73 273 0.0 0.0 0.00 0.00 0.00 57 1014.0
20260510020904 73 272 0.0 0.0 0.00 0.00 0.00 57 1014.0
20260510020404 73 232 0.0 0.0 0.00 0.00 0.00 52 1014.0
20260510015904 73 165 0.0 0.0 0.00 0.00 0.00 55 1014.1
20260510015404 74 165 0.0 0.0 0.00 0.00 0.00 53 1014.1
20260510014904 74 211 0.0 0.0 0.00 0.00 0.00 52 1014.2
20260510014404 75 211 0.0 0.0 0.00 0.00 0.00 51 1014.2
20260510013904 75 211 0.0 0.0 0.00 0.00 0.00 50 1014.2
20260510013404 75 212 0.0 2.0 0.00 0.00 0.00 48 1014.3
20260510012904 75 135 0.0 2.0 0.00 0.00 0.00 47 1014.4
20260510011404 76 269 0.0 2.0 0.00 0.00 0.00 41 1014.4
20260510010905 77 253 0.0 2.0 0.00 0.00 0.00 41 1014.4
20260510010405 77 233 0.0 0.0 0.00 0.00 0.00 43 1014.4
20260510005904 77 263 0.0 1.0 0.00 0.00 0.00 42 1014.5
20260510005404 77 256 0.0 1.0 0.00 0.00 0.00 40 1014.5
20260510004904 77 211 0.0 2.0 0.00 0.00 0.00 39 1014.6
20260510004404 77 132 0.0 2.0 0.00 0.00 0.00 39 1014.6
20260510003904 76 319 0.0 0.0 0.00 0.00 0.00 39 1014.7
20260510002903 76 186 0.0 0.0 0.00 0.00 0.00 38 1014.8
20260510002404 76 248 0.0 0.0 0.00 0.00 0.00 42 1014.8
20260510001904 77 274 0.0 2.0 0.00 0.00 0.00 38 1014.8
20260510001404 77 276 0.0 3.0 0.00 0.00 0.00 36 1014.9
20260510000904 77 210 1.0 3.0 0.00 0.00 0.00 34 1015.0
20260510000404 77 237 0.0 7.0 0.00 0.00 0.00 33 1015.0
20260509235905 77 286 1.0 7.0 0.00 0.00 0.00 33 1015.0
20260509234904 79 129 0.0 2.0 0.00 0.00 0.00 35 1015.1
20260509234404 79 251 0.0 1.0 0.00 0.00 0.00 38 1015.0
20260509233904 78 187 0.0 3.0 0.00 0.00 0.00 42 1015.1
20260509233404 77 73 0.0 3.0 0.00 0.00 0.00 38 1015.2
20260509232904 77 220 0.0 2.0 0.00 0.00 0.00 39 1015.2
20260509232404 77 216 0.0 5.0 0.00 0.00 0.00 36 1015.1
20260509231904 77 311 1.0 5.0 0.00 0.00 0.00 42 1015.3
20260509230904 77 28 0.0 0.0 0.00 0.00 0.00 43 1015.4
20260509230404 77 74 0.0 3.0 0.00 0.00 0.00 40 1015.5
20260509225904 78 222 0.0 3.0 0.00 0.00 0.00 40 1015.7
20260509225404 78 247 0.0 2.0 0.00 0.00 0.00 42 1015.7
20260509224905 78 4 0.0 2.0 0.00 0.00 0.00 40 1015.8
20260509224404 78 56 0.0 8.0 0.00 0.00 0.00 45 1015.9
20260509223404 77 261 0.0 6.0 0.00 0.00 0.00 49 1016.0
20260509222904 77 79 1.0 6.0 0.00 0.00 0.00 43 1016.2
20260509222404 77 230 1.0 5.0 0.00 0.00 0.00 45 1016.2
20260509221904 77 261 0.0 8.0 0.00 0.00 0.00 47 1016.2
20260509221404 76 202 0.0 8.0 0.00 0.00 0.00 47 1016.3
20260509215904 76 298 1.0 9.0 0.00 0.00 0.00 56 1016.4
20260509215404 76 293 3.0 9.0 0.00 0.00 0.00 51 1016.6
20260509214904 76 227 1.0 6.0 0.00 0.00 0.00 52 1016.6
20260509214404 75 237 1.0 7.0 0.00 0.00 0.00 49 1016.7
20260509213904 75 238 0.0 7.0 0.00 0.00 0.00 55 1016.7
20260509213405 75 252 2.0 7.0 0.00 0.00 0.00 52 1016.8
20260509212904 75 209 1.0 7.0 0.00 0.00 0.00 51 1016.8
20260509212404 74 255 0.0 5.0 0.00 0.00 0.00 53 1016.7
20260509211905 74 259 0.0 6.0 0.00 0.00 0.00 54 1016.8
20260509210905 74 137 1.0 3.0 0.00 0.00 0.00 52 1016.9
20260509210405 74 310 0.0 3.0 0.00 0.00 0.00 55 1016.9
20260509205904 74 50 0.0 6.0 0.00 0.00 0.00 52 1017.0
20260509205404 73 162 1.0 9.0 0.00 0.00 0.00 56 1017.0
20260509204904 73 255 3.0 9.0 0.00 0.00 0.00 53 1017.1
20260509204404 74 243 0.0 5.0 0.00 0.00 0.00 54 1017.2
20260509203904 73 159 0.0 5.0 0.00 0.00 0.00 56 1017.3
20260509203404 73 63 1.0 5.0 0.00 0.00 0.00 57 1017.5
20260509202903 72 348 0.0 3.0 0.00 0.00 0.00 58 1017.5
20260509202405 72 217 0.0 5.0 0.00 0.00 0.00 54 1017.6
20260509201904 73 227 0.0 5.0 0.00 0.00 0.00 54 1017.6
20260509200904 73 230 0.0 2.0 0.00 0.00 0.00 55 1017.7
20260509200404 73 214 0.0 7.0 0.00 0.00 0.00 58 1017.8
20260509195904 73 36 0.0 7.0 0.00 0.00 0.00 55 1017.9
20260509195404 73 293 0.0 3.0 0.00 0.00 0.00 56 1017.8
20260509194904 72 256 0.0 5.0 0.00 0.00 0.00 58 1017.9
20260509194404 72 237 0.0 5.0 0.00 0.00 0.00 60 1018.0
20260509193904 72 28 0.0 2.0 0.00 0.00 0.00 58 1018.1
20260509193404 71 0 0.0 5.0 0.00 0.00 0.00 59 1018.1
20260509192904 71 47 1.0 5.0 0.00 0.00 0.00 59 1018.2
20260509192404 71 195 0.0 5.0 0.00 0.00 0.00 58 1018.2
20260509191904 71 184 0.0 5.0 0.00 0.00 0.00 57 1018.4
20260509191404 70 240 1.0 5.0 0.00 0.00 0.00 61 1018.5
20260509190905 70 186 0.0 3.0 0.00 0.00 0.00 59 1018.5
20260509190404 70 253 0.0 3.0 0.00 0.00 0.00 58 1018.5
20260509185905 69 36 1.0 3.0 0.00 0.00 0.00 60 1018.7
20260509184904 69 212 0.0 3.0 0.00 0.00 0.00 59 1018.8
20260509184404 69 38 0.0 2.0 0.00 0.00 0.00 62 1018.8
20260509183904 68 299 0.0 2.0 0.00 0.00 0.00 66 1018.9
20260509183403 68 25 0.0 2.0 0.00 0.00 0.00 64 1019.0
20260509182904 67 223 0.0 3.0 0.00 0.00 0.00 64 1019.0
20260509182404 67 218 0.0 3.0 0.00 0.00 0.00 67 1019.0
20260509181904 67 255 0.0 2.0 0.00 0.00 0.00 62 1019.1
20260509181405 67 246 0.0 2.0 0.00 0.00 0.00 65 1019.1
20260509180904 67 240 0.0 3.0 0.00 0.00 0.00 65 1019.1
20260509175904 65 54 0.0 3.0 0.00 0.00 0.00 66 1019.3
20260509175405 65 95 0.0 3.0 0.00 0.00 0.00 63 1019.3
20260509174904 65 358 0.0 3.0 0.00 0.00 0.00 69 1019.4
20260509173904 64 226 0.0 2.0 0.00 0.00 0.00 68 1019.6
20260509173404 64 57 0.0 2.0 0.00 0.00 0.00 68 1019.7
20260509172405 63 235 0.0 0.0 0.00 0.00 0.00 69 1019.8
20260509171904 63 259 0.0 2.0 0.00 0.00 0.00 72 1020.0
20260509171404 62 272 0.0 2.0 0.00 0.00 0.00 70 1019.9
20260509170904 62 165 0.0 2.0 0.00 0.00 0.00 70 1020.0
20260509170404 61 263 0.0 1.0 0.00 0.00 0.00 71 1020.0
20260509165904 61 197 0.0 2.0 0.00 0.00 0.00 70 1020.2
20260509165405 61 256 0.0 3.0 0.00 0.00 0.00 74 1020.2
20260509164904 61 176 0.0 3.0 0.00 0.00 0.00 73 1020.2
20260509164405 60 275 0.0 1.0 0.00 0.00 0.00 76 1020.3
20260509162404 60 296 1.0 2.0 0.00 0.00 0.00 74 1020.8
20260509161904 59 278 0.0 0.0 0.00 0.00 0.00 75 1020.8
20260509161404 59 276 0.0 1.0 0.00 0.00 0.00 76 1020.7
20260509160904 58 189 0.0 2.0 0.00 0.00 0.00 75 1020.7
20260509155904 58 287 0.0 2.0 0.00 0.00 0.00 76 1020.6
20260509154904 57 81 0.0 0.0 0.00 0.00 0.00 77 1020.7
20260509154404 57 102 0.0 0.0 0.00 0.00 0.00 80 1020.8
20260509153904 56 90 0.0 0.0 0.00 0.00 0.00 80 1020.9
20260509153404 56 92 0.0 0.0 0.00 0.00 0.00 81 1021.1
20260509152904 55 60 0.0 0.0 0.00 0.00 0.00 83 1021.2
20260509152404 54 290 0.0 0.0 0.00 0.00 0.00 82 1021.3
20260509151905 54 287 0.0 0.0 0.00 0.00 0.00 82 1021.4
20260509151404 54 314 0.0 0.0 0.00 0.00 0.00 83 1021.5
20260509150904 54 36 0.0 0.0 0.00 0.00 0.00 84 1021.5
20260509150404 54 342 0.0 0.0 0.00 0.00 0.00 84 1021.6
20260509145404 53 74 0.0 0.0 0.00 0.00 0.00 84 1021.5
20260509144404 52 38 0.0 0.0 0.00 0.00 0.00 85 1021.4
20260509143904 51 41 0.0 0.0 0.00 0.00 0.00 87 1021.4
20260509143405 51 88 0.0 0.0 0.00 0.00 0.00 87 1021.3
20260509142904 51 88 0.0 0.0 0.00 0.00 0.00 88 1021.2
20260509142404 50 111 0.0 0.0 0.00 0.00 0.00 89 1021.2
20260509141905 49 126 0.0 0.0 0.00 0.00 0.00 89 1021.1
20260509141404 48 142 0.0 0.0 0.00 0.00 0.00 90 1021.1
20260509140904 47 142 0.0 0.0 0.00 0.00 0.00 91 1021.1
20260509140404 47 142 0.0 0.0 0.00 0.00 0.00 92 1021.0
20260509135904 46 142 0.0 0.0 0.00 0.00 0.00 93 1021.0
20260509135404 45 142 0.0 0.0 0.00 0.00 0.00 94 1021.0
20260509134904 44 142 0.0 0.0 0.00 0.00 0.00 94 1021.0
20260509134404 44 142 0.0 0.0 0.00 0.00 0.00 94 1020.9
20260509133904 43 142 0.0 0.0 0.00 0.00 0.00 94 1021.1
20260509132904 42 142 0.0 0.0 0.00 0.00 0.00 94 1021.0
20260509132404 42 142 0.0 0.0 0.00 0.00 0.00 93 1021.0
20260509131904 42 142 0.0 0.0 0.00 0.00 0.00 93 1021.0
20260509131404 42 142 0.0 0.0 0.00 0.00 0.00 93 1021.0
20260509130904 42 142 0.0 0.0 0.00 0.00 0.00 93 1021.0
20260509130404 42 142 0.0 0.0 0.00 0.00 0.00 93 1021.0
20260509125904 42 142 0.0 0.0 0.00 0.00 0.00 93 1021.1
20260509125404 42 142 0.0 0.0 0.00 0.00 0.00 93 1021.1
20260509124904 42 142 0.0 0.0 0.00 0.00 0.00 93 1021.2
20260509122904 42 142 0.0 0.0 0.00 0.00 0.00 92 1021.1
20260509122404 42 142 0.0 0.0 0.00 0.00 0.00 93 1021.1
20260509121404 43 142 0.0 0.0 0.00 0.00 0.00 93 1021.0
20260509115904 43 142 0.0 0.0 0.00 0.00 0.00 93 1021.1
20260509115404 43 142 0.0 0.0 0.00 0.00 0.00 93 1021.1
20260509114905 44 142 0.0 0.0 0.00 0.00 0.00 93 1021.2
20260509113904 43 142 0.0 0.0 0.00 0.00 0.00 92 1021.2
20260509113404 44 142 0.0 0.0 0.00 0.00 0.00 92 1021.2
20260509112904 44 142 0.0 0.0 0.00 0.00 0.00 92 1021.4
20260509112404 44 142 0.0 0.0 0.00 0.00 0.00 92 1021.5
20260509111904 44 142 0.0 0.0 0.00 0.00 0.00 92 1021.5
20260509111404 44 142 0.0 0.0 0.00 0.00 0.00 92 1021.5
20260509110404 44 142 0.0 0.0 0.00 0.00 0.00 91 1021.5
20260509105904 44 183 0.0 0.0 0.00 0.00 0.00 92 1021.6
20260509104905 45 183 0.0 0.0 0.00 0.00 0.00 92 1021.5
20260509104404 45 183 0.0 0.0 0.00 0.00 0.00 92 1021.5
20260509103904 45 183 0.0 0.0 0.00 0.00 0.00 91 1021.5
20260509103404 45 183 0.0 0.0 0.00 0.00 0.00 91 1021.5
20260509102904 46 183 0.0 0.0 0.00 0.00 0.00 91 1021.5
20260509102405 46 183 0.0 0.0 0.00 0.00 0.00 91 1021.5
20260509101904 46 183 0.0 0.0 0.00 0.00 0.00 91 1021.5
20260509101404 46 186 0.0 0.0 0.00 0.00 0.00 91 1021.6
20260509100405 46 186 0.0 0.0 0.00 0.00 0.00 91 1021.5
20260509095904 46 186 0.0 0.0 0.00 0.00 0.00 90 1021.5
20260509095404 47 186 0.0 0.0 0.00 0.00 0.00 91 1021.6
20260509094404 47 193 0.0 0.0 0.00 0.00 0.00 90 1021.7
20260509093905 47 193 0.0 0.0 0.00 0.00 0.00 89 1021.7
20260509093404 47 193 0.0 0.0 0.00 0.00 0.00 89 1021.7
20260509092904 48 193 0.0 0.0 0.00 0.00 0.00 89 1021.7
20260509091905 48 193 0.0 0.0 0.00 0.00 0.00 88 1021.8
20260509091404 48 193 0.0 0.0 0.00 0.00 0.00 88 1021.9
20260509090904 49 193 0.0 0.0 0.00 0.00 0.00 88 1021.9
20260509090404 49 193 0.0 0.0 0.00 0.00 0.00 87 1021.9
20260509085905 50 193 0.0 0.0 0.00 0.00 0.00 87 1022.0
20260509085404 50 193 0.0 0.0 0.00 0.00 0.00 85 1022.0
20260509084404 51 194 0.0 0.0 0.00 0.00 0.00 85 1022.0
20260509083904 51 193 0.0 0.0 0.00 0.00 0.00 84 1022.0
20260509083404 52 194 0.0 0.0 0.00 0.00 0.00 84 1022.1
20260509082904 52 194 0.0 0.0 0.00 0.00 0.00 84 1022.1
20260509081904 52 194 0.0 0.0 0.00 0.00 0.00 84 1022.2
20260509081404 52 194 0.0 0.0 0.00 0.00 0.00 83 1022.2
20260509080404 53 194 0.0 0.0 0.00 0.00 0.00 83 1022.1
20260509075904 53 194 0.0 0.0 0.00 0.00 0.00 82 1022.2
20260509075404 53 194 0.0 0.0 0.00 0.00 0.00 82 1022.1
20260509074904 53 194 0.0 0.0 0.00 0.00 0.00 82 1022.2
20260509074404 54 194 0.0 0.0 0.00 0.00 0.00 81 1022.3
20260509073904 54 194 0.0 0.0 0.00 0.00 0.00 81 1022.3
20260509073405 54 194 0.0 0.0 0.00 0.00 0.00 80 1022.3
20260509072405 54 194 0.0 0.0 0.00 0.00 0.00 80 1022.3
20260509071904 54 194 0.0 0.0 0.00 0.00 0.00 80 1022.3
20260509070404 55 194 0.0 0.0 0.00 0.00 0.00 78 1022.2
20260509065404 55 194 0.0 0.0 0.00 0.00 0.00 78 1022.2
20260509064904 56 194 0.0 0.0 0.00 0.00 0.00 77 1022.1
20260509064405 56 194 0.0 0.0 0.00 0.00 0.00 76 1022.1
20260509062904 56 194 0.0 0.0 0.00 0.00 0.00 75 1022.2
20260509061904 57 194 0.0 0.0 0.00 0.00 0.00 75 1022.1
20260509061404 57 229 0.0 0.0 0.00 0.00 0.00 74 1022.0
20260509060904 57 230 0.0 0.0 0.00 0.00 0.00 72 1021.9
20260509060405 58 234 0.0 0.0 0.00 0.00 0.00 71 1021.9
20260509055904 58 252 0.0 0.0 0.00 0.00 0.00 71 1021.9
20260509054904 58 253 0.0 0.0 0.00 0.00 0.00 71 1021.9
20260509054404 58 253 0.0 0.0 0.00 0.00 0.00 70 1021.9
20260509053904 58 253 0.0 0.0 0.00 0.00 0.00 70 1021.9
20260509053404 59 253 0.0 0.0 0.00 0.00 0.00 69 1022.0
20260509051905 59 221 0.0 0.0 0.00 0.00 0.00 70 1022.0
20260509051404 59 221 0.0 0.0 0.00 0.00 0.00 67 1022.0
20260509050904 59 221 0.0 0.0 0.00 0.00 0.00 67 1022.0
20260509050404 59 221 0.0 0.0 0.00 0.00 0.00 68 1021.9
20260509045904 59 146 0.0 0.0 0.00 0.00 0.00 68 1021.9
20260509045404 60 146 0.0 0.0 0.00 0.00 0.00 68 1021.9
20260509044904 60 146 0.0 0.0 0.00 0.00 0.00 67 1021.9
20260509044404 60 146 0.0 0.0 0.00 0.00 0.00 67 1021.8
20260509043904 60 146 0.0 2.0 0.00 0.00 0.00 66 1021.8
20260509043404 60 38 0.0 2.0 0.00 0.00 0.00 67 1021.7
20260509042904 60 267 0.0 2.0 0.00 0.00 0.00 66 1021.7
20260509042404 60 323 0.0 0.0 0.00 0.00 0.00 67 1021.7
20260509041404 60 294 0.0 0.0 0.00 0.00 0.00 68 1021.6
20260509040405 61 295 0.0 0.0 0.00 0.00 0.00 68 1021.6
20260509035404 61 291 0.0 0.0 0.00 0.00 0.00 67 1021.3
20260509034905 61 222 0.0 1.0 0.00 0.00 0.00 67 1021.3
20260509034404 61 169 0.0 1.0 0.00 0.00 0.00 65 1021.2
20260509033904 61 315 0.0 1.0 0.00 0.00 0.00 65 1021.2
20260509033404 62 257 0.0 2.0 0.00 0.00 0.00 65 1021.2